Volver al catálogo

STARLINK-2499

ActivoComunicacionesVLEO
NORAD 48377·PAYLOAD·🇺🇸 United States

Lanzado May 4, 2021 desde Cape Canaveral Space Force Station

Loading…

Próximos Pases (próximas 24 horas)

TLE

ActualizadoSource: CelesTrak SupGP

Época: Sep 14, 2026, 21:32 UTC

1 48377C 21038AA  26257.89770833 -.00013879  00000+0 -44636-3 0  2572
2 48377  53.1586 187.3297 0001351  85.4680  16.4178 15.31705039    19

Sigue STARLINK-2499 en tiempo real con AllMySat

Download on the App Store